Weather History for KINS - April, 2014

Change the Weather History Date:

Tuesday, April 15, 2014

  Actual Average (KDRA) Record (KDRA)
Temperature  
Mean Temperature 60 °F -  
Max Temperature 80 °F 69 °F 81 °F (1997)
Min Temperature 41 °F 43 °F 32 °F (1998)
Degree Days  
Heating Degree Days 4    
Growing Degree Days 10 (Base 50)    
Moisture  
Dew Point 8 °F    
Average Humidity 13    
Maximum Humidity 24    
Minimum Humidity 6    
Precipitation  
Precipitation 0.00 in - - ()
Sea Level Pressure  
Sea Level Pressure 29.88 in    
Wind  
Wind Speed 4 mph (WSW)    
Max Wind Speed 15 mph    
Max Gust Speed 21 mph    
Visibility 10 miles    
Events      
Averages and records for this station are not official NWS values.
T = Trace of Precipitation, MM = Missing Value Source: NWS Daily Summary

Daily Weather History Graph

Daily Weather History Graph

Search for Another Location

Airport or City:

Trip Planner

Search our weather history database for the weather conditions in past years. The results will help you decide how hot, cold, wet, or windy it might be!

Date:

Astronomy

Apr. 15, 2014 Rise Set
Actual Time 6:08 AM PDT 7:17 PM PDT
Civil Twilight 5:42 AM PDT 7:43 PM PDT
Nautical Twilight 5:10 AM PDT 8:15 PM PDT
Astronomical Twilight 4:37 AM PDT 8:48 PM PDT
Moon 8:01 PM PDT (4/15) 6:19 AM PDT (4/15)
Length of Visible Light 14h 01m
Length of Day
13h 08m
Full, 100% of the Moon is Illuminated
Apr 15
Full
Apr 22
Last Quarter
Apr 28
New
May 6
First Quarter
May 14
Full

Hourly Weather History & Observations

Time (PDT) Temp. Windchill Dew Point Humidity Pressure Visibility Wind Dir Wind Speed Gust Speed Precip Events Conditions
12:58 AM 52.0 °F - 7.3 °F 17% 30.04 in 10.0 mi WSW 4.6 mph - N/A   Clear
1:58 AM 48.9 °F - 10.6 °F 21% 30.02 in 10.0 mi SW 2.3 mph - N/A   Clear
2:58 AM 46.8 °F - 8.8 °F 21% 30.00 in 10.0 mi SW 4.6 mph - N/A   Clear
3:58 AM 45.1 °F - 8.2 °F 22% 29.99 in 10.0 mi SSE 1.2 mph - N/A   Clear
4:58 AM 46.2 °F - 9.1 °F 22% 29.98 in 10.0 mi Calm Calm - N/A   Clear
5:58 AM 41.9 °F 38.2 °F 5.7 °F 22% 29.98 in 10.0 mi West 5.8 mph - N/A   Clear
6:58 AM 44.2 °F - 9.5 °F 24% 29.98 in 10.0 mi Calm Calm - N/A   Clear
7:58 AM 49.3 °F - 8.8 °F 19% 29.97 in 10.0 mi Calm Calm - N/A   Partly Cloudy
8:58 AM 57.0 °F - 8.4 °F 14% 29.97 in 10.0 mi NNW 2.3 mph - N/A   Partly Cloudy
9:58 AM 60.1 °F - 7.0 °F 12% 29.96 in 10.0 mi Calm Calm - N/A   Scattered Clouds
10:58 AM 65.3 °F - 5.4 °F 9% 29.94 in 10.0 mi Variable 3.5 mph - N/A   Scattered Clouds
11:58 AM 70.3 °F - 3.6 °F 7% 29.91 in 10.0 mi Calm Calm - N/A   Mostly Cloudy
12:58 PM 73.2 °F - 2.5 °F 6% 29.87 in 10.0 mi Variable 1.2 mph - N/A   Partly Cloudy
1:58 PM 75.2 °F - 3.9 °F 6% 29.84 in 10.0 mi ESE 4.6 mph - N/A   Partly Cloudy
2:58 PM 77.5 °F - 5.7 °F 6% 29.79 in 10.0 mi Variable 4.6 mph - N/A   Clear
3:58 PM 79.0 °F - 10.2 °F 7% 29.76 in 10.0 mi NW 11.5 mph - N/A   Partly Cloudy
4:08 PM 78.8 °F - 10.4 °F 7% 29.84 in 10.0 mi West 12.7 mph 17.3 mph N/A   Partly Cloudy
4:58 PM 80.1 °F - 7.7 °F 6% 29.73 in 10.0 mi WNW 13.8 mph 20.7 mph N/A   Clear
5:58 PM 78.3 °F - 9.7 °F 7% 29.74 in 10.0 mi WNW 15.0 mph - N/A   Clear
6:58 PM 75.2 °F - 7.3 °F 7% 29.72 in 10.0 mi WNW 11.5 mph - N/A   Clear
7:58 PM 70.0 °F - 7.3 °F 9% 29.73 in 10.0 mi WSW 6.9 mph - N/A   Clear
8:58 PM 68.7 °F - 7.9 °F 9% 29.83 in 10.0 mi ESE 8.1 mph - N/A   Clear
9:58 PM 63.3 °F - 10.2 °F 12% 29.83 in 10.0 mi Calm Calm - N/A   Clear
10:58 PM 59.0 °F - 6.6 °F 12% 29.83 in 10.0 mi Calm Calm - N/A   Clear
11:58 PM 57.6 °F - 11.3 °F 16% 29.83 in 10.0 mi South 2.3 mph - N/A   Clear